Regional Weather Roundup
Issued by NWS

Home | Current Version | Previous Version | Text Only | Print | Product List | Glossary On
Versions: 1 2 3 4 5 6 7 8 9 10 11 12 13 14 15 16 17 18 19 20 21 22 23 24 25 26 27 28 29 30 31 32 33 34 35 36 37 38 39 40 41 42 43 44 45 46 47 48 49 50
000
ASUS43 KDTX 041201
RWRMI
MICHIGAN HOURLY REGIONAL WEATHER ROUNDUP
NATIONAL WEATHER SERVICE DETROIT/PONTIAC MI
800 AM EDT TUE AUG 04 2015

NOTE: "FAIR" INDICATES FEW OR NO CLOUDS BELOW 12,000 FEET WITH NO
SIGNIFICANT WEATHER AND/OR OBSTRUCTION TO VISIBILITY.

MIZ047>049-052>055-059>063-066>070-074>076-081>083-041300-
SOUTHEAST LOWER MICHIGAN

CITY           SKY/WX    TMP DP  RH WIND       PRES   REMARKS
ADRIAN         SUNNY     59  55  87 VRB3      29.94R
6HR MIN TEMP:  55; 6HR MAX TEMP:  60;

ALMA           SUNNY     60  58  95 W3        29.91R
ANN ARBOR      SUNNY     58  56  93 CALM      29.92R
BAD AXE        PTSUNNY   59  58  97 CALM      29.89S
CARO           SUNNY     59  56  91 CALM      29.89S
DETROIT CITY   SUNNY     66  53  63 W3        29.91S
6HR MIN TEMP:  61; 6HR MAX TEMP:  66;

DETROIT        MOSUNNY   62  54  74 S6        29.93R
6HR MIN TEMP:  60; 6HR MAX TEMP:  63;

FLINT          SUNNY     62  54  74 SW5       29.91R
6HR MIN TEMP:  56; 6HR MAX TEMP:  62;

GROSSE ILE     SUNNY     64  55  72 CALM      29.91S
HILLSDALE      SUNNY     63  57  79 W3        29.95R
6HR MIN TEMP:  57; 6HR MAX TEMP:  63;

HOWELL         SUNNY     62  56  80 SW3       29.91S

CITY           SKY/WX    TMP DP  RH WIND       PRES   REMARKS
JACKSON        SUNNY     60  55  83 W5        29.93R
6HR MIN TEMP:  55; 6HR MAX TEMP:  60;

LAMBERTVILLE   SUNNY     65  54  67 W5        29.94R
6HR MIN TEMP:  57; 6HR MAX TEMP:  65;

LANSING        SUNNY     63  55  75 W8        29.92R
6HR MIN TEMP:  59; 6HR MAX TEMP:  63;

LAPEER         FAIR      61  57  86 CALM      29.91S
MASON          MOSUNNY   59  54  82 CALM      29.92R
MONROE         SUNNY     62  56  80 W5        29.92S
MT. CLEMENS    MOSUNNY   65  55  68 W6        29.89R
6HR MIN TEMP:  61; 6HR MAX TEMP:  65;

PONTIAC        MOSUNNY   63  54  72 VRB3      29.91R
6HR MIN TEMP:  57; 6HR MAX TEMP:  63;

PORT HURON     SUNNY     61  57  88 CALM      29.90S
TRI CITIES     SUNNY     62  56  80 SW7       29.89S
6HR MIN TEMP:  58; 6HR MAX TEMP:  63;

MIDLAND        FAIR      59  56  91 SW3       29.88S
6HR MIN TEMP:  53; 6HR MAX TEMP:  59;

TROY           CLOUDY    66  53  63 W3        29.92S
SAGINAW HB     SUNNY     61  57  88 SW5       29.89R
$$
MIZ043>046-050>051-056>058-064>065-071>073-077>080-041300-
SOUTHWEST LOWER MICHIGAN

CITY           SKY/WX    TMP DP  RH WIND       PRES   REMARKS
BATTLE CREEK     N/A    N/A N/A N/A MISG      29.94R
BENTON HARBOR  SUNNY     61  58  90 CALM      29.94R
6HR MIN TEMP:  56; 6HR MAX TEMP:  61;

BIG RAPIDS     SUNNY     58  57  97 CALM      29.90R
6HR MIN TEMP:  53; 6HR MAX TEMP:  62;

COLDWATER      SUNNY     60  55  83 W5        29.95R
6HR MIN TEMP:  55; 6HR MAX TEMP:  60;

FREMONT        FAIR      59  59  99 CALM      29.91R
HOLLAND        SUNNY     64  61  90 SW5       29.93R
6HR MIN TEMP:  58; 6HR MAX TEMP:  64;

GRAND RAPIDS   MOSUNNY   64  59  83 W6        29.93R
6HR MIN TEMP:  60; 6HR MAX TEMP:  64;

IONIA          FAIR      63  57  82 W6        29.91R
6HR MIN TEMP:  58; 6HR MAX TEMP:  63;

KALAMAZOO      SUNNY     61  56  83 S3        29.95R
6HR MIN TEMP:  58; 6HR MAX TEMP:  62;

LUDINGTON      CLOUDY    64  60  86 CALM      29.90R
6HR MIN TEMP:  56; 6HR MAX TEMP:  64;

MARSHALL       SUNNY     61  55  82 SW5       29.94R
MOUNT PLEASANT SUNNY     63  59  88 SW5       29.89R
6HR MIN TEMP:  55; 6HR MAX TEMP:  63;

MUSKEGON       MOSUNNY   69  60  73 W3        29.92R
6HR MIN TEMP:  62; 6HR MAX TEMP:  69;

SOUTH HAVEN    SUNNY     60  59  95 CALM      29.94R
$$
MIZ016>042-041300-
NORTHERN LOWER MICHIGAN

CITY           SKY/WX    TMP DP  RH WIND       PRES   REMARKS
ALPENA         LGT RAIN  57  54  89 W6        29.86R
6HR MIN TEMP:  50; 6HR MAX TEMP:  57; 6HR PCP: TRACE;

BEAVER ISLAND  MOSUNNY   60  56  87 NW8       29.86R
6HR MIN TEMP:  55; 6HR MAX TEMP:  61;

BELLAIRE       CLOUDY    62  58  90 SW3       29.86R
6HR MIN TEMP:  55; 6HR MAX TEMP:  62;

CADILLAC       MOSUNNY   59  57  96 SW6       29.89R
CHARLEVOIX     MOSUNNY   63  58  83 NW6       29.88R
6HR MIN TEMP:  58; 6HR MAX TEMP:  64;

FRANKFORT      CLOUDY    65  60  83 NW6       29.88R
GAYLORD        CLOUDY    59  58  96 W5        29.87R
6HR MIN TEMP:  54; 6HR MAX TEMP:  59; 6HR PCP:  0.01;

GRAYLING       PTSUNNY   57  55  92 SW5       29.87S
6HR MIN TEMP:  47; 6HR MAX TEMP:  58;

HARBOR SPRINGS MOSUNNY   60  57  90 CALM      29.85R
HOUGHTON LAKE  SUNNY     62  57  83 VRB5      29.88R
6HR MIN TEMP:  49; 6HR MAX TEMP:  62;

MANISTEE       MOSUNNY   55  52  88 CALM      29.90R
OSCODA         CLOUDY    57  55  94 SW6       29.86S
PELLSTON       CLOUDY    60  58  92 CALM      29.85R
6HR MIN TEMP:  50; 6HR MAX TEMP:  60;

ROGERS CITY    CLOUDY    58  56  92 SW7       29.85S
TRAVERSE CITY  PTSUNNY   63  59  87 SW3       29.86R
6HR MIN TEMP:  56; 6HR MAX TEMP:  63;

$$
MIZ007>008-015-041300-
EASTERN UPPER MICHIGAN

CITY           SKY/WX    TMP DP  RH WIND       PRES   REMARKS
KINROSS        CLOUDY    55  55 100 W5        29.83R
6HR MIN TEMP:  54; 6HR MAX TEMP:  55;

MACKINAC ISLAN CLOUDY    59  58  99 W6        29.83S
NEWBERRY       CLOUDY    57  55  94 W5        29.84S
6HR MIN TEMP:  53; 6HR MAX TEMP:  57;

S. S. MARIE    CLOUDY    59  55  87 W6        29.82R
6HR MIN TEMP:  56; 6HR MAX TEMP:  59;

MUNISING         N/A     62  54  74 N12       29.87R
6HR MIN TEMP:  59; 6HR MAX TEMP:  63;

$$
MIZ004>006-011>014-085-041300-
CENTRAL UPPER MICHIGAN

CITY           SKY/WX    TMP DP  RH WIND       PRES   REMARKS
ESCANABA       MOSUNNY   55  54  94 W5        29.87R
6HR MIN TEMP:  54; 6HR MAX TEMP:  59;

MENOMINEE      SUNNY     57  54  88 NW3       29.88S
6HR MIN TEMP:  57; 6HR MAX TEMP:  61;

SAWYER-GWINN   PTSUNNY   55  52  88 CALM      29.88R
$$
MIZ001>003-009>011-084-041300-
WESTERN UPPER MICHIGAN

CITY           SKY/WX    TMP DP  RH WIND       PRES   REMARKS
IRON MOUNTAIN  SUNNY     58  55  90 NW3       29.88R
6HR MIN TEMP:  56; 6HR MAX TEMP:  58;

HOUGHTON       LGT RAIN  57  54  89 NW7       29.88R
6HR MIN TEMP:  55; 6HR MAX TEMP:  57; 6HR PCP:  0.02;

COPPER HARBOR    N/A     59  52  77 NE9       29.86R
6HR MIN TEMP:  58; 6HR MAX TEMP:  60;

IRONWOOD       PTSUNNY   55  55 100 NW7       29.89S
6HR MIN TEMP:  54; 6HR MAX TEMP:  57;

$$

ABBREVIATIONS USED IN REMARKS
   TC - TEMPERATURE IN CELSIUS
  WCI - WIND CHILL INDEX
   HX - HEAT INDEX
  VSB - VISIBILITY




USA.gov is the U.S. government's official web portal to all federal, state and local government web resources and services.